Zurück zum Katalog

STARLINK-37423

AktivKommunikationSSO
NORAD 68852·PAYLOAD·🇺🇸 United States

Gestartet Apr 26, 2026 von Vandenberg Space Force Base

Loading…

Nächste Überflüge (nächste 24 Stunden)

TLE

AktuellSource: CelesTrak SupGP

Epoche: Sep 15, 2026, 03:34 UTC

1 68852C 26094P   26258.14909722 -.00071821  00000+0 -22299-2 0  2581
2 68852  97.2834 271.3674 0001541  97.5323  81.6741 15.33469180    12

Verfolge STARLINK-37423 in Echtzeit mit AllMySat

Download on the App Store